Weather History for Huntsville, TX

Change the Weather History Date:

Tuesday, March 26, 2013

  Actual Average (KCXO) Record (KCXO)
Temperature  
Mean Temperature 44 °F -  
Max Temperature 60 °F 71 °F 86 °F (2011)
Min Temperature 30 °F 50 °F 28 °F (2013)
Degree Days  
Heating Degree Days 20    
Moisture  
Dew Point 25 °F    
Average Humidity 49    
Maximum Humidity 76    
Minimum Humidity 24    
Precipitation  
Precipitation 0.00 in - - ()
Sea Level Pressure  
Sea Level Pressure 30.40 in    
Wind  
Wind Speed 1 mph (North)    
Max Wind Speed 8 mph    
Max Gust Speed -    
Visibility 10 miles    
Events      
Averages and records for this station are not official NWS values.
T = Trace of Precipitation, MM = Missing Value Source: NWS Daily Summary

Daily Weather History Graph

Daily Weather History Graph

Search for Another Location

Airport:

Trip Planner

Search our weather history database for the weather conditions in past years. The results will help you decide how hot, cold, wet, or windy it might be!

Date:

Astronomy

Mar. 26, 2013 Rise Set
Actual Time 7:18 AM CDT 7:37 PM CDT
Civil Twilight 6:54 AM CDT 8:01 PM CDT
Nautical Twilight 6:26 AM CDT 8:30 PM CDT
Astronomical Twilight 5:57 AM CDT 8:58 PM CDT
Moon 7:14 PM CDT (3/26) 6:34 AM CDT (3/26)
Length of Visible Light 13h 07m
Length of Day
12h 19m
Waxing Gibbous, 99% of the Moon is Illuminated
Mar 26
Waxing Gibbous
Mar 27
Full
Apr 2
Last Quarter
Apr 10
New
Apr 18
First Quarter

Hourly Weather History & Observations

Time (CDT) Temp. Windchill Dew Point Humidity Pressure Visibility Wind Dir Wind Speed Gust Speed Precip Events Conditions
12:53 AM 39.9 °F - 25.0 °F 55% 30.40 in 10.0 mi Calm Calm - N/A   Clear
1:53 AM 37.0 °F - 26.1 °F 65% 30.40 in 10.0 mi Calm Calm - N/A   Clear
2:53 AM 34.0 °F - 27.0 °F 75% 30.40 in 10.0 mi Calm Calm - N/A   Clear
3:53 AM 35.1 °F - 26.1 °F 70% 30.39 in 10.0 mi Calm Calm - N/A   Clear
4:53 AM 33.1 °F - 24.1 °F 70% 30.39 in 10.0 mi Calm Calm - N/A   Clear
5:53 AM 32.0 °F - 24.1 °F 73% 30.40 in 10.0 mi Calm Calm - N/A   Clear
6:53 AM 30.9 °F - 24.1 °F 76% 30.42 in 10.0 mi Calm Calm - N/A   Clear
7:53 AM 32.0 °F - 24.1 °F 73% 30.45 in 10.0 mi Calm Calm - N/A   Clear
8:53 AM 39.9 °F - 26.1 °F 58% 30.48 in 10.0 mi Calm Calm - N/A   Clear
9:53 AM 44.1 °F 42.5 °F 23.0 °F 43% 30.49 in 10.0 mi East 3.5 mph - N/A   Clear
10:53 AM 48.0 °F - 21.0 °F 34% 30.49 in 10.0 mi Variable 3.5 mph - N/A   Clear
11:53 AM 51.1 °F - 21.0 °F 31% 30.48 in 10.0 mi Variable 5.8 mph - N/A   Clear
12:53 PM 55.0 °F - 23.0 °F 29% 30.46 in 10.0 mi North 8.1 mph - 0.00 in   Clear
1:53 PM 55.9 °F - 23.0 °F 28% 30.43 in 10.0 mi Variable 6.9 mph - N/A   Clear
2:53 PM 57.0 °F - 21.9 °F 26% 30.40 in 9.0 mi Variable 3.5 mph - N/A   Clear
3:53 PM 59.0 °F - 23.0 °F 25% 30.37 in 10.0 mi North 4.6 mph - 0.00 in   Clear
4:53 PM 59.0 °F - 24.1 °F 26% 30.35 in 10.0 mi NNW 6.9 mph - 0.00 in   Clear
5:53 PM 59.0 °F - 21.9 °F 24% 30.33 in 10.0 mi Variable 4.6 mph - N/A   Clear
6:53 PM 57.0 °F - 24.1 °F 28% 30.33 in 10.0 mi Calm Calm - N/A   Clear
7:53 PM 51.1 °F - 27.0 °F 39% 30.33 in 10.0 mi Calm Calm - N/A   Clear
8:53 PM 45.0 °F - 30.9 °F 58% 30.34 in 10.0 mi Calm Calm - N/A   Clear
9:53 PM 45.0 °F - 28.9 °F 53% 30.35 in 10.0 mi Calm Calm - N/A   Clear
10:53 PM 44.1 °F - 30.0 °F 58% 30.35 in 10.0 mi Calm Calm - N/A   Clear
11:53 PM 41.0 °F - 30.0 °F 65% 30.36 in 10.0 mi Calm Calm - N/A   Clear